Weather Roundup
Issued by NWS Chicago, IL

Home | Current Version | Previous Version | Graphics & Text | Print | Product List | Glossary On
Versions: 1 2 3 4 5 6 7 8 9 10 11 12 13 14 15 16 17 18 19 20 21 22 23 24 25 26 27 28 29 30 31 32 33 34 35 36 37 38 39 40 41 42 43 44 45 46 47 48 49 50
000
NZUS59 KLOT 250204
HRRLOT

CHICAGO AREA WEATHER ROUNDUP
NATIONAL WEATHER SERVICE CHICAGO/ROMEOVILLE IL
900 PM CDT WED MAY 24 2017

NOTE: "FAIR" INDICATES FEW OR NO CLOUDS BELOW 12,000 FEET WITH NO
SIGNIFICANT WEATHER AND/OR OBSTRUCTIONS TO VISIBILITY.

* THESE STATIONS ARE NOT UNDER NWS QUALITY CONTROL. THEY ALSO MAY NOT
  REPORT WEATHER SUCH AS PRECIPITATION OR FOG.

ILZ005-006-012>014-019>023-250300-
NORTHEAST ILLINOIS

CITY           SKY/WX    TMP DP  RH WIND       PRES   REMARKS
OHARE          CLOUDY    54  48  80 NE16      29.56S
MIDWAY         CLOUDY    52  49  89 N13       29.55F
AURORA         CLOUDY    60  52  74 N12       29.57S
LANSING*       CLOUDY    50  50 100 N8G16     29.54F
WAUKEGAN       CLOUDY    52  48  86 N10G18    29.58R
DUPAGE AIRPORT LGT RAIN  58  53  84 N12       29.56R
WHEELING       CLOUDY    54  50  86 N13G20    29.58S
NORTHERLY ISL    N/A     50  47  89 NW12        N/A
$$

WIZ051-052-058>065-066-070>072-250300-
SOUTHEAST WISCONSIN

CITY           SKY/WX    TMP DP  RH WIND       PRES   REMARKS
MILWAUKEE      MOCLDY    55  50  83 N21G28    29.60F
KENOSHA*       CLOUDY    54  48  80 N15       29.59R
RACINE*        CLOUDY    51  47  86 N20G26    29.62R
WAUKESHA       CLOUDY    55  48  76 N8        29.62F
$$

INZ001>003-010>013-019-020-250300-
NORTHWEST INDIANA

CITY           SKY/WX    TMP DP  RH WIND       PRES   REMARKS
GARY*          LGT RAIN  52  50  93 NW9       29.55S
MICHIGAN CITY* NOT AVBL
RENSSELAER*    NOT AVBL
VALPARAISO     CLOUDY    51  50  96 NW8       29.52S FOG
$$

LMZ740>746-250300-
SOUTHERN LAKE MICHIGAN

STATION/POSITION TIME  SKY/WX   TEMP WIND        PRES    VSBY
                                AIR  DIR/SP/G
                 (UTC)          (F)  (DEG/KT/KT) (MB)    (MI)
HARRISON CRIB    0140            49  350/ 21/ 23   N/A
BURNHAM HARBOR   0200            49  200/ 13/ 19   N/A
CALUMET HARBOR   0130            49  340/ 12/ 15 1000.4
BURNS HARBOR     0140            50  320/  7/  9 1000.7S
MICHIGAN CITY    0140            51  300/  3/  4   N/A
$$

ABBREVIATIONS USED IN REMARKS
   TC - TEMPERATURE IN CELSIUS
  WCI - WIND CHILL INDEX
   HX - HEAT INDEX
  VSB - VISIBILITY
$$



USA.gov is the U.S. government's official web portal to all federal, state and local government web resources and services.